Location: Charlottesville
(38.0290°N, 78.4770°W)
Time: 20:11:11
(UTC-04:00)

Tiangong 2 - Visible Passes

Search period start: 25 May 2018 00:00
Search period end: 04 June 2018 00:00
Orbit: 382 x 385 km, 42.8° (Epoch: 25 May)

Date Brightness Start Highest point End Pass type
(mag) Time Alt. Az. Time Alt. Az. Time Alt. Az.
25 May 2.7 22:20:38 10° WNW 22:23:31 32° N 22:25:10 19° NE visible
26 May 2.6 21:20:37 10° WNW 21:23:35 36° N 21:26:32 10° ENE visible
26 May 2.6 22:57:43 10° WNW 23:00:16 35° NNW 23:00:16 35° NNW visible
27 May 2.7 21:57:51 10° WNW 22:00:45 33° N 22:03:05 14° ENE visible
27 May 4.0 23:34:36 10° WNW 23:35:16 15° WNW 23:35:16 15° WNW visible
28 May 2.7 20:57:53 10° WNW 21:00:47 32° N 21:03:40 10° ENE visible
28 May 1.8 22:34:48 10° WNW 22:37:52 48° NNE 22:38:02 47° NNE visible
29 May 2.4 21:34:58 10° WNW 21:37:56 37° N 21:40:46 11° ENE visible
29 May 3.3 23:11:40 10° WNW 23:12:57 22° WNW 23:12:57 22° WNW visible
30 May 1.1 22:11:49 10° WNW 22:14:58 72° NNE 22:15:40 48° E visible
31 May 1.8 21:12:00 10° WNW 21:15:04 48° NNE 21:18:08 10° E visible
31 May 2.8 22:48:49 10° W 22:50:35 26° WSW 22:50:35 26° WSW visible
01 Jun 1.1 21:48:50 10° WNW 21:51:59 68° SSW 21:53:20 30° SE visible
02 Jun 3.0 22:26:11 10° W 22:28:17 20° SW 22:28:17 20° SW visible
03 Jun 2.0 21:25:57 10° W 21:28:54 37° SSW 21:31:06 15° SSE visible
